QPF
0.05 0.06 0.07 0.07 0.06 0.05 0.05 0.05 0.05 0.07 0.08 0.09 0.08 0.08 0.12 0.15 0.08 0.06 0.06 0.05 0.05 0.06 0.08 0.10 0.10 0.10 0.08 0.06 0.06 0.05 0.04 0.04 0.04 0.02 0.02 0.03 0.03 0.03 0.03 0.03 0.03 0.02 0.02
0.03 0.05 0.06 0.06 0.05 0.05 0.05 0.05 0.05 0.07 0.09 0.09 0.09 0.10 0.11 0.14 0.14 0.09 0.05 0.06 0.07 0.08 0.09 0.11 0.13 0.13 0.10 0.09 0.07 0.05 0.05 0.04 0.03 0.02 0.02 0.02 0.03 0.03 0.04 0.04 0.03 0.03 0.02
0.03 0.04 0.04 0.04 0.05 0.05 0.05 0.05 0.05 0.06 0.06 0.06 0.07 0.07 0.05 0.07 0.10 0.08 0.06 0.06 0.07 0.08 0.10 0.10 0.10 0.10 0.10 0.11 0.12 0.09 0.08 0.06 0.04 0.03 0.02 0.02 0.03 0.04 0.05 0.06 0.05 0.03 0.02
0.04 0.04 0.03 0.04 0.04 0.04 0.03 0.04 0.05 0.06 0.06 0.06 0.07 0.06 0.04 0.05 0.06 0.04 0.03 0.04 0.06 0.06 0.09 0.09 0.08 0.06 0.05 0.05 0.08 0.10 0.11 0.09 0.07 0.04 0.04 0.04 0.03 0.04 0.04 0.06 0.05 0.03 0.02
0.02 0.04 0.03 0.04 0.02 0.02 0.03 0.03 0.06 0.05 0.05 0.05 0.05 0.05 0.04 0.06 0.05 0.03 0.03 0.03 0.04 0.04 0.06 0.08 0.06 0.04 0.03 0.03 0.03 0.05 0.05 0.05 0.07 0.08 0.07 0.06 0.06 0.05 0.04 0.04 0.04 0.03 0.02
0.02 0.03 0.03 0.03 0.02 0.03 0.05 0.07 0.07 0.06 0.05 0.05 0.04 0.05 0.06 0.05 0.05 0.04 0.03 0.03 0.04 0.04 0.05 0.07 0.07 0.04 0.03 0.02 0.02 0.02 0.03 0.03 0.05 0.05 0.06 0.06 0.05 0.04 0.03 0.03 0.03 0.03 0.03
0.03 0.04 0.03 0.03 0.03 0.04 0.05 0.05 0.06 0.06 0.05 0.05 0.05 0.05 0.05 0.04 0.05 0.05 0.04 0.03 0.03 0.04 0.04 0.05 0.07 0.05 0.03 0.01 0.01 0.01 0.02 0.03 0.03 0.02 0.03 0.03 0.04 0.04 0.04 0.04 0.04 0.04 0.03
0.04 0.02 0.04 0.04 0.04 0.04 0.05 0.06 0.06 0.05 0.04 0.04 0.05 0.05 0.05 0.05 0.04 0.03 0.04 0.05 0.04 0.03 0.03 0.04 0.06 0.04 0.02 0.02 0.01 0.01 0.01 0.02 0.03 0.03 0.04 0.04 0.05 0.05 0.05 0.06 0.07 0.06 0.05
0.03 0.03 0.03 0.05 0.04 0.03 0.03 0.04 0.03 0.04 0.05 0.05 0.05 0.06 0.07 0.06 0.04 0.02 0.02 0.04 0.05 0.05 0.05 0.04 0.03 0.02 0.02 0.02 0.02 0.03 0.02 0.02 0.02 0.03 0.04 0.05 0.06 0.06 0.05 0.07 0.09 0.08 0.08
0.04 0.04 0.05 0.04 0.04 0.03 0.03 0.03 0.03 0.05 0.05 0.05 0.05 0.06 0.06 0.07 0.06 0.04 0.03 0.04 0.04 0.05 0.06 0.05 0.04 0.03 0.02 0.02 0.02 0.03 0.03 0.03 0.03 0.03 0.05 0.06 0.07 0.08 0.09 0.11 0.14 0.15 0.14
0.02 0.02 0.03 0.03 0.04 0.06 0.05 0.05 0.05 0.04 0.04 0.05 0.06 0.06 0.05 0.05 0.05 0.05 0.05 0.06 0.06 0.05 0.04 0.04 0.04 0.03 0.02 0.02 0.03 0.03 0.03 0.03 0.02 0.02 0.04 0.07 0.10 0.11 0.12 0.13 0.15 0.16 0.14
0.02 0.02 0.02 0.03 0.04 0.06 0.06 0.05 0.05 0.04 0.05 0.05 0.06 0.07 0.07 0.06 0.06 0.08 0.06 0.06 0.07 0.06 0.05 0.04 0.04 0.02 0.02 0.02 0.02 0.02 0.02 0.02 0.02 0.03 0.03 0.06 0.09 0.10 0.10 0.11 0.15 0.16 0.17
0.04 0.04 0.04 0.04 0.05 0.05 0.04 0.05 0.06 0.05 0.06 0.05 0.05 0.06 0.07 0.07 0.07 0.08 0.06 0.06 0.06 0.06 0.06 0.04 0.02 0.02 0.02 0.02 0.02 0.02 0.02 0.02 0.02 0.02 0.03 0.03 0.04 0.06 0.10 0.13 0.14 0.12 0.12
0.04 0.03 0.03 0.04 0.04 0.05 0.04 0.05 0.04 0.04 0.06 0.04 0.04 0.06 0.08 0.08 0.07 0.06 0.06 0.08 0.06 0.05 0.05 0.04 0.02 0.03 0.03 0.02 0.02 0.02 0.02 0.02 0.02 0.02 0.03 0.03 0.03 0.05 0.08 0.09 0.10 0.11 0.11
0.03 0.03 0.02 0.04 0.04 0.05 0.05 0.04 0.04 0.04 0.05 0.04 0.05 0.06 0.07 0.07 0.06 0.06 0.06 0.06 0.06 0.04 0.04 0.03 0.04 0.04 0.03 0.02 0.02 0.02 0.03 0.02 0.02 0.03 0.03 0.03 0.03 0.03 0.04 0.06 0.07 0.08 0.07
0.03 0.03 0.04 0.05 0.05 0.05 0.04 0.04 0.04 0.04 0.04 0.04 0.05 0.06 0.07 0.07 0.06 0.06 0.06 0.07 0.05 0.04 0.03 0.02 0.04 0.04 0.03 0.02 0.02 0.02 0.02 0.02 0.01 0.02 0.02 0.02 0.03 0.03 0.04 0.04 0.05 0.05 0.04
0.02 0.02 0.03 0.03 0.03 0.04 0.04 0.04 0.04 0.04 0.04 0.04 0.04 0.05 0.06 0.06 0.06 0.06 0.06 0.06 0.04 0.03 0.02 0.02 0.03 0.03 0.03 0.03 0.02 0.02 0.01 0.01 0.01 0.01 0.01 0.01 0.02 0.02 0.02 0.02 0.02 0.01 0.01
0.01 0.01 0.01 0.02 0.03 0.04 0.04 0.05 0.04 0.04 0.04 0.04 0.06 0.06 0.06 0.07 0.06 0.05 0.04 0.04 0.04 0.04 0.03 0.03 0.03 0.03 0.03 0.03 0.03 0.03 0.01 0.01 0.01 0.01 0.01 0.01 0.02 0.02 0.01 0.01 0.01 0.00 0.00
0.01 0.01 0.01 0.02 0.02 0.02 0.02 0.03 0.04 0.04 0.04 0.06 0.08 0.07 0.08 0.08 0.06 0.05 0.04 0.04 0.04 0.04 0.04 0.03 0.03 0.03 0.02 0.02 0.02 0.02 0.02 0.02 0.01 0.01 0.01 0.01 0.02 0.02 0.02 0.01 0.01 0.01 0.01
0.01 0.01 0.01 0.02 0.02 0.01 0.02 0.03 0.03 0.03 0.04 0.05 0.05 0.06 0.06 0.06 0.06 0.06 0.05 0.05 0.05 0.05 0.04 0.03 0.03 0.02 0.02 0.02 0.03 0.03 0.03 0.02 0.02 0.01 0.01 0.01 0.01 0.02 0.02 0.01 0.01 0.01 0.01
0.01 0.01 0.02 0.02 0.02 0.03 0.03 0.04 0.03 0.03 0.04 0.04 0.05 0.06 0.05 0.05 0.05 0.05 0.05 0.05 0.06 0.06 0.05 0.03 0.03 0.03 0.04 0.04 0.04 0.03 0.03 0.03 0.02 0.01 0.01 0.01 0.01 0.01 0.01 0.02 0.01 0.01 0.00
0.02 0.02 0.03 0.03 0.04 0.03 0.04 0.05 0.04 0.04 0.04 0.03 0.04 0.05 0.05 0.04 0.03 0.03 0.03 0.04 0.05 0.05 0.04 0.03 0.03 0.04 0.04 0.04 0.04 0.05 0.05 0.05 0.04 0.03 0.02 0.02 0.02 0.02 0.01 0.01 0.02 0.01 0.01
0.02 0.02 0.03 0.03 0.03 0.04 0.05 0.05 0.04 0.04 0.03 0.02 0.03 0.05 0.04 0.03 0.04 0.03 0.03 0.04 0.03 0.03 0.04 0.04 0.04 0.04 0.05 0.05 0.06 0.05 0.05 0.05 0.04 0.03 0.02 0.02 0.01 0.01 0.01 0.02 0.02 0.02 0.01
0.02 0.03 0.04 0.04 0.03 0.03 0.03 0.03 0.04 0.05 0.04 0.03 0.03 0.04 0.05 0.04 0.04 0.04 0.04 0.03 0.03 0.03 0.03 0.03 0.03 0.03 0.04 0.05 0.05 0.05 0.05 0.05 0.04 0.03 0.03 0.02 0.01 0.01 0.01 0.02 0.02 0.02 0.02
0.03 0.04 0.04 0.03 0.03 0.04 0.04 0.03 0.03 0.03 0.05 0.05 0.04 0.03 0.05 0.05 0.05 0.05 0.06 0.04 0.04 0.03 0.03 0.03 0.03 0.03 0.04 0.04 0.05 0.04 0.05 0.05 0.05 0.04 0.05 0.04 0.04 0.03 0.03 0.02 0.02 0.02 0.02
0.02 0.03 0.04 0.05 0.04 0.04 0.03 0.03 0.03 0.03 0.03 0.04 0.05 0.05 0.06 0.05 0.06 0.06 0.07 0.05 0.03 0.02 0.02 0.02 0.02 0.03 0.03 0.04 0.06 0.05 0.05 0.05 0.04 0.05 0.05 0.06 0.04 0.05 0.04 0.04 0.04 0.04 0.04
MSLP
1017.04 1017.11 1017.08 1016.98 1016.87 1016.77 1016.72 1016.72 1016.74 1016.76 1016.74 1016.65 1016.48 1016.25 1016.01 1015.79 1015.66 1015.67 1015.83 1016.12 1016.52 1016.97 1017.41 1017.80 1018.11 1018.33 1018.47 1018.57 1018.65 1018.75 1018.87 1019.03 1019.21 1019.40 1019.57 1019.73 1019.86 1019.95 1020.02 1020.05 1020.07 1020.07 1020.06
1017.38 1017.40 1017.35 1017.24 1017.13 1017.04 1017.00 1016.99 1017.01 1017.02 1016.97 1016.85 1016.64 1016.36 1016.04 1015.75 1015.54 1015.45 1015.51 1015.71 1016.03 1016.42 1016.84 1017.24 1017.58 1017.85 1018.06 1018.22 1018.35 1018.47 1018.60 1018.74 1018.90 1019.06 1019.22 1019.36 1019.50 1019.61 1019.70 1019.78 1019.83 1019.87 1019.87
1017.60 1017.62 1017.56 1017.48 1017.40 1017.34 1017.31 1017.32 1017.34 1017.34 1017.27 1017.11 1016.86 1016.52 1016.15 1015.78 1015.47 1015.27 1015.22 1015.31 1015.53 1015.85 1016.23 1016.62 1017.00 1017.33 1017.60 1017.83 1018.02 1018.18 1018.32 1018.44 1018.57 1018.69 1018.82 1018.94 1019.07 1019.19 1019.31 1019.43 1019.53 1019.60 1019.64
1017.67 1017.70 1017.68 1017.64 1017.60 1017.59 1017.59 1017.62 1017.64 1017.62 1017.53 1017.35 1017.06 1016.69 1016.26 1015.82 1015.43 1015.13 1014.96 1014.94 1015.05 1015.28 1015.60 1015.97 1016.36 1016.73 1017.08 1017.38 1017.62 1017.83 1017.98 1018.11 1018.21 1018.29 1018.38 1018.47 1018.58 1018.70 1018.84 1018.98 1019.12 1019.24 1019.32
1017.57 1017.64 1017.67 1017.68 1017.70 1017.72 1017.76 1017.80 1017.83 1017.80 1017.70 1017.50 1017.20 1016.81 1016.36 1015.88 1015.43 1015.04 1014.77 1014.62 1014.61 1014.73 1014.97 1015.29 1015.66 1016.06 1016.45 1016.81 1017.12 1017.37 1017.56 1017.70 1017.78 1017.84 1017.89 1017.94 1018.02 1018.13 1018.27 1018.43 1018.59 1018.75 1018.88
1017.32 1017.43 1017.51 1017.58 1017.64 1017.71 1017.77 1017.82 1017.85 1017.82 1017.72 1017.53 1017.25 1016.87 1016.43 1015.95 1015.47 1015.03 1014.66 1014.40 1014.26 1014.25 1014.37 1014.61 1014.93 1015.31 1015.72 1016.12 1016.48 1016.78 1017.01 1017.17 1017.26 1017.30 1017.33 1017.35 1017.40 1017.49 1017.61 1017.77 1017.95 1018.13 1018.29
1016.96 1017.10 1017.22 1017.33 1017.44 1017.53 1017.61 1017.67 1017.70 1017.68 1017.60 1017.44 1017.20 1016.89 1016.50 1016.06 1015.59 1015.12 1014.69 1014.32 1014.05 1013.90 1013.87 1013.97 1014.19 1014.51 1014.89 1015.30 1015.69 1016.03 1016.31 1016.50 1016.62 1016.67 1016.69 1016.70 1016.73 1016.79 1016.89 1017.04 1017.21 1017.39 1017.56
1016.53 1016.68 1016.83 1016.97 1017.09 1017.21 1017.30 1017.36 1017.40 1017.40 1017.35 1017.25 1017.10 1016.87 1016.58 1016.22 1015.80 1015.34 1014.87 1014.41 1014.01 1013.69 1013.49 1013.43 1013.51 1013.71 1014.02 1014.39 1014.78 1015.15 1015.47 1015.71 1015.87 1015.96 1016.00 1016.01 1016.03 1016.07 1016.14 1016.26 1016.40 1016.57 1016.73
1016.07 1016.22 1016.37 1016.51 1016.65 1016.77 1016.86 1016.93 1016.98 1017.00 1017.01 1016.99 1016.94 1016.83 1016.67 1016.42 1016.09 1015.67 1015.19 1014.66 1014.14 1013.67 1013.29 1013.03 1012.93 1012.98 1013.17 1013.46 1013.82 1014.19 1014.54 1014.83 1015.04 1015.18 1015.26 1015.30 1015.32 1015.35 1015.40 1015.48 1015.59 1015.72 1015.86
1015.62 1015.73 1015.86 1016.00 1016.13 1016.24 1016.33 1016.40 1016.47 1016.52 1016.59 1016.65 1016.71 1016.74 1016.71 1016.60 1016.38 1016.03 1015.57 1015.01 1014.41 1013.80 1013.24 1012.79 1012.49 1012.37 1012.41 1012.59 1012.88 1013.23 1013.58 1013.91 1014.18 1014.38 1014.51 1014.59 1014.64 1014.67 1014.71 1014.76 1014.83 1014.92 1015.02
1015.19 1015.25 1015.34 1015.44 1015.55 1015.65 1015.73 1015.80 1015.87 1015.96 1016.07 1016.21 1016.37 1016.52 1016.63 1016.66 1016.56 1016.31 1015.91 1015.36 1014.71 1014.00 1013.31 1012.70 1012.23 1011.92 1011.80 1011.86 1012.05 1012.34 1012.68 1013.02 1013.33 1013.58 1013.77 1013.90 1013.99 1014.04 1014.08 1014.11 1014.15 1014.19 1014.25
1014.78 1014.77 1014.81 1014.87 1014.95 1015.02 1015.09 1015.14 1015.21 1015.31 1015.45 1015.64 1015.87 1016.12 1016.34 1016.49 1016.52 1016.39 1016.07 1015.58 1014.93 1014.19 1013.42 1012.70 1012.09 1011.63 1011.37 1011.28 1011.37 1011.58 1011.87 1012.20 1012.52 1012.81 1013.04 1013.23 1013.36 1013.44 1013.49 1013.52 1013.53 1013.54 1013.57
1014.40 1014.32 1014.30 1014.31 1014.35 1014.39 1014.43 1014.46 1014.50 1014.58 1014.71 1014.91 1015.18 1015.48 1015.78 1016.03 1016.18 1016.16 1015.95 1015.55 1014.97 1014.26 1013.49 1012.72 1012.02 1011.46 1011.08 1010.87 1010.84 1010.95 1011.17 1011.45 1011.76 1012.06 1012.32 1012.54 1012.70 1012.82 1012.89 1012.93 1012.95 1012.94 1012.94
1014.07 1013.93 1013.85 1013.82 1013.82 1013.82 1013.81 1013.80 1013.79 1013.82 1013.91 1014.07 1014.31 1014.62 1014.96 1015.27 1015.50 1015.59 1015.50 1015.22 1014.75 1014.13 1013.42 1012.67 1011.95 1011.34 1010.88 1010.57 1010.43 1010.44 1010.57 1010.77 1011.03 1011.30 1011.56 1011.79 1011.98 1012.13 1012.23 1012.29 1012.32 1012.33 1012.32
1013.84 1013.65 1013.53 1013.46 1013.42 1013.38 1013.32 1013.24 1013.17 1013.12 1013.12 1013.20 1013.37 1013.63 1013.94 1014.27 1014.55 1014.73 1014.75 1014.60 1014.27 1013.77 1013.16 1012.49 1011.82 1011.21 1010.70 1010.32 1010.09 1009.99 1010.01 1010.13 1010.30 1010.51 1010.73 1010.95 1011.14 1011.31 1011.44 1011.53 1011.59 1011.62 1011.63
1013.77 1013.55 1013.41 1013.32 1013.24 1013.16 1013.04 1012.89 1012.73 1012.57 1012.46 1012.43 1012.49 1012.65 1012.89 1013.19 1013.47 1013.69 1013.80 1013.76 1013.56 1013.21 1012.72 1012.16 1011.56 1010.99 1010.48 1010.06 1009.75 1009.56 1009.47 1009.47 1009.55 1009.67 1009.82 1009.99 1010.16 1010.33 1010.48 1010.61 1010.71 1010.78 1010.83
1013.90 1013.69 1013.55 1013.45 1013.35 1013.23 1013.06 1012.84 1012.58 1012.31 1012.07 1011.90 1011.83 1011.86 1012.00 1012.21 1012.45 1012.67 1012.82 1012.85 1012.75 1012.51 1012.15 1011.69 1011.18 1010.66 1010.17 1009.73 1009.37 1009.10 1008.91 1008.79 1008.75 1008.76 1008.82 1008.92 1009.05 1009.20 1009.35 1009.51 1009.65 1009.78 1009.88
1014.26 1014.08 1013.95 1013.85 1013.74 1013.59 1013.38 1013.09 1012.75 1012.38 1012.02 1011.72 1011.51 1011.41 1011.42 1011.52 1011.68 1011.85 1011.98 1012.03 1011.98 1011.80 1011.52 1011.14 1010.70 1010.23 1009.76 1009.32 1008.93 1008.58 1008.30 1008.09 1007.93 1007.83 1007.79 1007.80 1007.87 1007.98 1008.12 1008.29 1008.47 1008.64 1008.81
1014.82 1014.67 1014.57 1014.49 1014.38 1014.21 1013.96 1013.63 1013.22 1012.77 1012.32 1011.91 1011.58 1011.35 1011.23 1011.21 1011.26 1011.34 1011.41 1011.42 1011.35 1011.19 1010.93 1010.59 1010.19 1009.75 1009.30 1008.85 1008.43 1008.04 1007.69 1007.38 1007.12 1006.92 1006.78 1006.70 1006.68 1006.74 1006.86 1007.02 1007.22 1007.44 1007.66
1015.49 1015.39 1015.32 1015.25 1015.14 1014.96 1014.69 1014.33 1013.89 1013.39 1012.88 1012.40 1011.98 1011.66 1011.44 1011.30 1011.24 1011.21 1011.17 1011.09 1010.96 1010.75 1010.46 1010.10 1009.69 1009.26 1008.80 1008.35 1007.91 1007.49 1007.09 1006.72 1006.38 1006.08 1005.85 1005.68 1005.58 1005.57 1005.64 1005.79 1006.00 1006.24 1006.50
1016.18 1016.12 1016.07 1016.01 1015.89 1015.71 1015.43 1015.06 1014.60 1014.09 1013.57 1013.06 1012.61 1012.23 1011.93 1011.71 1011.53 1011.39 1011.23 1011.04 1010.80 1010.49 1010.13 1009.72 1009.27 1008.81 1008.34 1007.88 1007.43 1006.98 1006.55 1006.13 1005.73 1005.37 1005.05 1004.79 1004.62 1004.53 1004.55 1004.66 1004.85 1005.10 1005.38
1016.79 1016.75 1016.70 1016.63 1016.51 1016.32 1016.04 1015.67 1015.23 1014.74 1014.23 1013.74 1013.29 1012.89 1012.56 1012.28 1012.03 1011.78 1011.51 1011.20 1010.83 1010.41 1009.95 1009.45 1008.95 1008.44 1007.95 1007.47 1007.00 1006.55 1006.09 1005.64 1005.20 1004.78 1004.39 1004.06 1003.80 1003.65 1003.60 1003.65 1003.81 1004.04 1004.32
1017.25 1017.19 1017.14 1017.05 1016.92 1016.71 1016.43 1016.07 1015.66 1015.20 1014.74 1014.29 1013.88 1013.51 1013.17 1012.87 1012.57 1012.24 1011.88 1011.46 1010.98 1010.45 1009.89 1009.31 1008.73 1008.17 1007.64 1007.14 1006.66 1006.20 1005.73 1005.26 1004.78 1004.30 1003.85 1003.45 1003.12 1002.89 1002.77 1002.76 1002.87 1003.06 1003.32
1017.51 1017.44 1017.36 1017.25 1017.09 1016.87 1016.59 1016.25 1015.86 1015.45 1015.04 1014.65 1014.29 1013.96 1013.65 1013.35 1013.02 1012.66 1012.23 1011.73 1011.17 1010.55 1009.91 1009.25 1008.62 1008.01 1007.45 1006.92 1006.42 1005.94 1005.45 1004.95 1004.43 1003.91 1003.40 1002.93 1002.52 1002.21 1002.01 1001.94 1001.98 1002.13 1002.35
1017.61 1017.52 1017.41 1017.28 1017.10 1016.87 1016.59 1016.26 1015.90 1015.53 1015.17 1014.83 1014.52 1014.23 1013.95 1013.66 1013.33 1012.94 1012.48 1011.94 1011.32 1010.66 1009.96 1009.26 1008.58 1007.95 1007.35 1006.80 1006.28 1005.77 1005.25 1004.71 1004.14 1003.56 1002.98 1002.44 1001.96 1001.56 1001.29 1001.15 1001.13 1001.22 1001.40
1017.61 1017.51 1017.39 1017.24 1017.06 1016.83 1016.55 1016.23 1015.90 1015.56 1015.23 1014.92 1014.64 1014.37 1014.11 1013.82 1013.49 1013.09 1012.61 1012.05 1011.42 1010.74 1010.02 1009.31 1008.62 1007.97 1007.36 1006.78 1006.23 1005.68 1005.11 1004.52 1003.89 1003.24 1002.59 1001.97 1001.41 1000.94 1000.59 1000.38 1000.30 1000.34 1000.47
Thickness
5768 5767 5766 5766 5767 5767 5767 5767 5767 5766 5766 5766 5766 5766 5766 5767 5767 5767 5763 5759 5756 5755 5753 5752 5751 5750 5748 5747 5745 5744 5743 5742 5741 5740 5738 5736 5735 5733 5731 5729 5727 5725 5724
5766 5766 5766 5765 5767 5766 5766 5767 5767 5766 5767 5767 5766 5766 5766 5766 5765 5764 5764 5761 5757 5755 5754 5753 5751 5750 5749 5747 5746 5745 5744 5742 5741 5740 5738 5736 5734 5732 5730 5728 5727 5725 5723
5764 5765 5766 5766 5766 5766 5765 5766 5766 5767 5766 5766 5765 5766 5766 5765 5764 5763 5763 5763 5761 5757 5755 5753 5751 5750 5749 5748 5746 5745 5744 5742 5741 5740 5738 5736 5734 5732 5730 5728 5727 5725 5723
5763 5764 5765 5766 5765 5766 5766 5766 5766 5766 5765 5765 5764 5765 5766 5764 5763 5762 5763 5762 5762 5760 5757 5753 5751 5750 5749 5748 5747 5746 5744 5742 5741 5739 5738 5736 5734 5732 5730 5728 5726 5724 5723
5763 5763 5764 5764 5764 5766 5766 5766 5766 5764 5763 5763 5764 5764 5765 5764 5763 5763 5762 5762 5761 5759 5759 5755 5752 5750 5749 5748 5747 5746 5744 5743 5741 5739 5738 5737 5735 5732 5730 5727 5726 5724 5722
5763 5763 5763 5763 5764 5765 5763 5763 5761 5761 5761 5762 5764 5763 5764 5764 5764 5763 5762 5762 5760 5759 5759 5757 5755 5752 5750 5748 5747 5746 5745 5743 5741 5740 5738 5736 5734 5732 5729 5727 5726 5724 5722
5763 5762 5763 5763 5763 5763 5761 5762 5761 5760 5760 5761 5759 5758 5761 5763 5762 5761 5761 5761 5760 5759 5757 5756 5755 5754 5752 5748 5747 5745 5744 5743 5741 5739 5738 5736 5733 5731 5729 5727 5725 5723 5722
5762 5763 5762 5763 5762 5761 5760 5759 5758 5757 5758 5759 5756 5753 5751 5754 5756 5761 5760 5758 5758 5758 5757 5755 5753 5751 5751 5750 5748 5745 5743 5742 5740 5739 5737 5735 5733 5731 5728 5727 5725 5723 5721
5762 5762 5762 5762 5761 5761 5760 5758 5757 5755 5754 5756 5757 5752 5748 5746 5750 5755 5755 5756 5754 5754 5754 5754 5752 5751 5749 5748 5746 5744 5742 5740 5739 5738 5736 5734 5732 5730 5728 5726 5724 5722 5720
5761 5761 5760 5760 5759 5760 5759 5758 5759 5757 5754 5753 5754 5754 5752 5750 5746 5746 5750 5753 5752 5750 5751 5752 5752 5749 5747 5746 5744 5741 5739 5737 5736 5735 5734 5732 5730 5729 5727 5725 5723 5721 5720
5760 5760 5759 5759 5758 5758 5757 5757 5756 5755 5755 5753 5753 5752 5750 5749 5748 5744 5741 5745 5747 5749 5749 5749 5748 5747 5745 5744 5742 5740 5737 5735 5734 5733 5732 5730 5729 5727 5725 5723 5721 5720 5718
5761 5760 5759 5758 5757 5757 5756 5755 5754 5754 5753 5751 5751 5751 5749 5747 5745 5743 5740 5740 5740 5745 5746 5747 5746 5745 5744 5742 5740 5737 5734 5732 5731 5730 5729 5728 5727 5725 5723 5721 5719 5717 5716
5760 5759 5759 5757 5756 5755 5755 5754 5753 5753 5751 5749 5748 5749 5749 5748 5747 5744 5741 5739 5737 5741 5741 5744 5744 5742 5741 5739 5737 5733 5731 5729 5727 5726 5726 5725 5724 5722 5720 5718 5716 5714 5713
5758 5757 5756 5755 5754 5754 5754 5752 5752 5751 5750 5749 5748 5746 5745 5745 5745 5743 5740 5736 5733 5735 5736 5738 5741 5740 5737 5735 5732 5729 5728 5725 5723 5722 5721 5720 5720 5718 5717 5715 5713 5711 5710
5756 5755 5753 5752 5752 5751 5750 5749 5749 5748 5747 5747 5746 5744 5742 5743 5742 5742 5740 5737 5732 5728 5729 5733 5734 5735 5732 5730 5727 5725 5724 5721 5719 5718 5717 5716 5715 5714 5712 5711 5709 5707 5706
5751 5750 5749 5748 5748 5747 5747 5745 5745 5744 5743 5742 5742 5740 5739 5740 5739 5738 5737 5735 5733 5729 5726 5731 5729 5730 5727 5726 5723 5721 5720 5717 5715 5714 5713 5712 5711 5709 5708 5706 5705 5703 5702
5747 5746 5745 5744 5743 5743 5742 5741 5741 5740 5738 5738 5738 5737 5735 5734 5734 5734 5733 5732 5730 5728 5723 5725 5726 5725 5721 5719 5719 5717 5716 5715 5714 5711 5709 5708 5706 5705 5703 5702 5700 5699 5697
5743 5742 5741 5740 5739 5739 5738 5737 5736 5736 5734 5733 5732 5732 5731 5731 5729 5729 5728 5727 5726 5724 5722 5718 5720 5719 5716 5715 5713 5712 5713 5712 5710 5708 5705 5703 5701 5700 5698 5697 5695 5694 5693
5739 5738 5737 5735 5735 5734 5733 5733 5732 5731 5730 5729 5728 5727 5727 5725 5724 5724 5722 5722 5721 5721 5718 5716 5715 5714 5713 5712 5709 5707 5707 5706 5706 5704 5701 5699 5697 5695 5694 5693 5692 5690 5689
5734 5733 5732 5731 5730 5730 5729 5728 5727 5726 5726 5725 5724 5724 5723 5722 5720 5719 5718 5716 5716 5714 5712 5711 5710 5709 5707 5706 5704 5701 5700 5700 5699 5700 5697 5696 5693 5691 5690 5689 5687 5685 5684
5730 5728 5727 5726 5726 5726 5725 5722 5721 5722 5721 5720 5719 5719 5719 5718 5716 5714 5714 5712 5710 5708 5707 5706 5704 5703 5701 5698 5697 5697 5694 5693 5693 5693 5692 5692 5691 5689 5688 5685 5682 5681 5680
5724 5723 5722 5721 5720 5721 5717 5715 5714 5716 5716 5715 5714 5714 5715 5713 5711 5708 5706 5705 5703 5702 5702 5700 5699 5696 5694 5694 5692 5691 5688 5685 5684 5687 5685 5686 5687 5685 5685 5684 5680 5677 5675
5720 5718 5716 5715 5714 5713 5710 5709 5708 5709 5710 5710 5709 5708 5709 5710 5707 5705 5702 5699 5698 5696 5695 5695 5693 5691 5690 5689 5686 5684 5682 5680 5680 5681 5679 5679 5681 5679 5680 5679 5676 5673 5671
5714 5713 5711 5710 5709 5707 5704 5703 5702 5704 5705 5705 5705 5704 5702 5701 5700 5697 5696 5695 5694 5693 5691 5689 5688 5687 5686 5683 5681 5679 5677 5675 5675 5675 5674 5672 5674 5674 5675 5672 5669 5667 5665
5708 5707 5706 5704 5702 5701 5698 5697 5696 5699 5699 5699 5699 5699 5697 5695 5692 5689 5689 5688 5687 5687 5685 5682 5680 5679 5677 5674 5672 5672 5670 5668 5667 5668 5668 5666 5667 5667 5667 5667 5665 5662 5660
5702 5702 5701 5699 5697 5695 5692 5690 5689 5694 5694 5694 5694 5693 5689 5687 5684 5681 5682 5681 5679 5679 5678 5677 5673 5672 5671 5669 5666 5665 5665 5663 5661 5660 5662 5659 5660 5659 5658 5661 5660 5658 5655